Weather History for CWSA - November, 2012

Change the Weather History Date:

Saturday, November 10, 2012

  Actual Average Record
Temperature  
Mean Temperature 45 °F -  
Max Temperature 48 °F 47 °F 59 °F (2005)
Min Temperature 41 °F 39 °F 33 °F (2004)
Degree Days  
Heating Degree Days 20    
Moisture  
Dew Point 33 °F    
Average Humidity 58    
Maximum Humidity 76    
Minimum Humidity 34    
Precipitation  
Precipitation 0.04 in - - ()
Sea Level Pressure  
Sea Level Pressure 29.98 in    
Wind  
Wind Speed 20 mph ()    
Max Wind Speed 31 mph    
Max Gust Speed 37 mph    
Visibility 9.0 miles    
Events      
Averages and records for this station are not official NWS values.
T = Trace of Precipitation, MM = Missing Value Source: Averaged Metar Reports

Daily Weather History Graph

Daily Weather History Graph

Search for Another Location

Airport or City:

Trip Planner

Search our weather history database for the weather conditions in past years. The results will help you decide how hot, cold, wet, or windy it might be!

Date:

Astronomy

Nov. 10, 2012 Rise Set
Actual Time 6:48 AM AST 4:38 PM AST
Civil Twilight 6:18 AM AST 5:09 PM AST
Nautical Twilight 5:43 AM AST 5:43 PM AST
Astronomical Twilight 5:09 AM AST 6:17 PM AST
Moon 2:41 AM AST (11/10) 2:28 PM AST (11/10)
Length of Visible Light 10h 51m
Length of Day
9h 49m
Waning Crescent, 15% of the Moon is Illuminated
Nov 10
Waning Crescent
Nov 13
New
Nov 20
First Quarter
Nov 28
Full
Dec 6
Last Quarter

Hourly Weather History & Observations

Time (AST) Temp. Windchill Dew Point Humidity Pressure Visibility Wind Dir Wind Speed Gust Speed Precip Events Conditions
12:00 AM 46.4 °F 39.5 °F 39.2 °F 76% 29.71 in 9.0 mi NW 17.3 mph 27.6 mph N/A   Overcast
1:00 AM 46.4 °F 39.0 °F 39.2 °F 76% 29.73 in 9.0 mi WNW 19.6 mph 25.3 mph N/A   Overcast
2:00 AM 47 °F - 40 °F 69% 29.76 in 9 mi WNW 18.4 mph - -   Overcast
3:00 AM 46.4 °F 38.1 °F 39.2 °F 76% 29.78 in 9.0 mi WNW 24.2 mph - N/A   Overcast
4:00 AM 46.4 °F 39.0 °F 35.6 °F 66% 29.81 in 9.0 mi WNW 19.6 mph 27.6 mph N/A   Mostly Cloudy
5:00 AM 46 °F - 38 °F 65% 29.83 in 9 mi WNW 19.6 mph - -  
5:00 AM 46.4 °F 39.2 °F 37.4 °F 71% 29.83 in 9.0 mi WNW 18.4 mph 27.6 mph N/A   Mostly Cloudy
5:59 AM 46.4 °F 38.7 °F 37.4 °F 71% 29.84 in 9.0 mi WNW 20.7 mph 29.9 mph N/A   Scattered Clouds
6:00 AM 46.4 °F 37.7 °F 37.4 °F 71% 29.85 in 9.0 mi WNW 26.5 mph - N/A   Scattered Clouds
7:00 AM 46.4 °F 38.1 °F 35.6 °F 66% 29.88 in 9.0 mi WNW 24.2 mph - N/A   Scattered Clouds
8:00 AM 47 °F - 38 °F 61% 29.91 in 9 mi WNW 21.9 mph - -   Overcast
8:00 AM 46.4 °F 38.3 °F 37.4 °F 71% 29.91 in 9.0 mi WNW 23.0 mph 31.1 mph N/A   Overcast
8:39 AM 46.4 °F 37.0 °F 37.4 °F 71% 29.92 in 9.0 mi WNW 31.1 mph - N/A   Overcast
9:00 AM 46.4 °F 39.0 °F 37.4 °F 71% 29.94 in 9.0 mi WNW 19.6 mph 28.8 mph N/A   Overcast
9:12 AM 46.4 °F 38.3 °F 35.6 °F 66% 29.94 in 9.0 mi WNW 23.0 mph 32.2 mph N/A   Overcast
10:00 AM 46.4 °F 37.7 °F 32.0 °F 57% 29.96 in 9.0 mi WNW 26.5 mph 35.7 mph N/A   Mostly Cloudy
11:00 AM 47 °F - 33 °F 46% 29.96 in 9 mi WNW 25.3 mph - -  
11:00 AM 46.4 °F 37.5 °F 32.0 °F 57% 29.96 in 9.0 mi WNW 27.6 mph 36.8 mph N/A   Mostly Cloudy
12:00 PM 46.4 °F 38.3 °F 32.0 °F 57% 29.96 in 9.0 mi WNW 23.0 mph 32.2 mph N/A   Overcast
1:00 PM 46.4 °F 37.7 °F 32.0 °F 57% 29.98 in 9.0 mi WNW 26.5 mph 33.4 mph N/A   Overcast
2:00 PM 48 °F - 31 °F 40% 30.00 in 9 mi WNW 24.2 mph - -   Overcast
2:00 PM 48.2 °F - 32.0 °F 54% 30.00 in 9.0 mi WNW 20.7 mph 35.7 mph N/A   Overcast
3:00 PM 46.4 °F 38.5 °F 33.8 °F 62% 30.02 in 9.0 mi NW 21.9 mph 32.2 mph N/A   Overcast
4:00 PM 46.4 °F 38.5 °F 30.2 °F 53% 30.05 in 9.0 mi WNW 21.9 mph 33.4 mph N/A   Mostly Cloudy
5:00 PM 45 °F - 27 °F 36% 30.09 in 9 mi WNW 25.3 mph - -  
5:00 PM 44.6 °F 35.1 °F 26.6 °F 49% 30.09 in 9.0 mi WNW 27.6 mph 35.7 mph N/A   Mostly Cloudy
6:00 PM 44.6 °F 36.1 °F 24.8 °F 46% 30.13 in 9.0 mi WNW 21.9 mph 29.9 mph N/A   Partly Cloudy
7:00 PM 44.6 °F 35.9 °F 24.8 °F 46% 30.16 in 9.0 mi NW 23.0 mph 33.4 mph N/A   Scattered Clouds
8:00 PM 44 °F - 25 °F 34% 30.19 in 9 mi NW 23.0 mph - -   Unknown Precipitation
8:00 PM 44.6 °F 35.9 °F 24.8 °F 46% 30.19 in 9.0 mi NW 23.0 mph 31.1 mph N/A   Partly Cloudy
9:00 PM 44.6 °F 35.5 °F 26.6 °F 49% 30.23 in 9.0 mi NW 25.3 mph 34.5 mph N/A   Mostly Cloudy
10:00 PM 42.8 °F 33.3 °F 24.8 °F 49% 30.26 in 9.0 mi NW 24.2 mph 32.2 mph N/A   Scattered Clouds
11:00 PM 42 °F - 25 °F 38% 30.28 in 9 mi NW 21.9 mph - -  
11:00 PM 41.0 °F 32.2 °F 24.8 °F 53% 30.28 in 9.0 mi NW 18.4 mph 31.1 mph N/A   Scattered Clouds